DECAYED
Showing default

QUANTUTONG 1, 43158 (Decayed)

Orbit data source: Space-Track

QUANTUTONG 1, 43158 was a payload satellite owned by QuanTuTong (CN) in SSO that was launched on Fri, 19 Jan 2018 UTC via a CHANG ZHENG 11 launch vehicle from the Jiuquan Satellite Launch Center, China (JSC). Payload-class satellites include a variety of spacecraft equipped with specific instruments for various scientific and technological missions. These include communications satellites like Starlink; space stations such as the ISS; scientific satellites like the Hubble; Earth observation satellites from companies like Planet Labs, Umbra, and HawkEye 360; GPS; miniature CubeSats for education and research; and military/defense satellites.

Loading next visibility...
Identifier
43158, 2018-008D
Orbit
Decayed
Last TLE update
7 months ago
Origin
Manufacturer
Changsha Tianyi
Mission
Decayed Commercial Navigation
Bus & Motor
CUBESAT 6U, Unknown motor
Mass
8 kg wet, 8 kg dry
Launch date (UTC)
2018-01-19 (7 years ago)
Launch vehicle
CHANG ZHENG 11
Launch site
Jiuquan Satellite Launch Center, China (JSC)
Object type
Payload
Rocket body
Debris
Shape & HBR
Box, 0.3 m
Radar Cross Section
0.080 m², Medium (>0.1 m² and < 1m²)

Expand to show TLE details & history

TLE from 7 months ago
0 QUANTUTONG 1
1 43158U 18008D   24289.57081905  .01911305  30434-2  22393-2 0  9995
2 43158  97.2486 341.2486 0006509 265.8690  94.1850 16.09457699373267
Epoch: 2024-10-15T13:41Z
Definitive object data (Epoch: 2024-10-15T13:41:58.765Z)
Latitude
-0.00003°
Longitude
111.17205°
Altitude
251.864 km
Speed
7.756 km/s
True Right ascension
22h 44m 59s
True Declination
0° 00' 00"
Sunlit
Object was in full shadow at TLE epoch
Visualization observer readout
Visualization observer readout
Orbital elements
Apogee altitude
249.483 km
Perigee altitude
240.861 km
Semi-major axis
6,623.309 km
Eccentricity
0.0006509
Inclination
97.2486°
RAAN
341.2486°
Arg. of periapsis
265.869°
True anomaly
94.25938°
Mean anomaly
94.185°
Eccentric anomaly
94.22219°
Mean motion
4.02653 °/min
BSTAR
0.0022393
Orbital period
89.41 mins
Loading maneuver chart data...
Loading SW <> Apogee altitude chart data...
Loading historical data...
Loading historical data...
Loading historical data...
Loading historical data...
Loading historical data...
Loading historical data...
Loading historical data...

QUANTUTONG 1 Visibility forecast

Observer location: undefined°, undefined°

Span
Click to sort rows by Start time (UTC) header in descending order
Start Az.
Max El. time (UTC)
Max El. Az.
Max El.
End time (UTC)
End Az.
7 mins2025-05-09 11:00:15.197Z345.577° N2025-05-09 11:02:15.197Z43.806° NE39.933°2025-05-09 11:07:15.197Z125.591° SE
7 mins2025-05-09 11:22:15.197Z121.403° SE2025-05-09 11:26:15.197Z41.413° NE40.874°2025-05-09 11:29:15.197Z330.812° NNW
22 mins2025-05-09 14:59:15.197Z352.215° N2025-05-09 15:04:15.197Z238.941° WSW44.62°2025-05-09 15:21:15.197Z356.752° N
8 mins2025-05-09 18:52:15.197Z359.434° N2025-05-09 18:54:15.197Z315.357° NNW33.377°2025-05-09 19:00:15.197Z239.292° WSW
8 mins2025-05-09 19:11:15.197Z254.787° W2025-05-09 19:15:15.197Z313.305° NW31.752°2025-05-09 19:19:15.197Z36.379° NE
8 mins2025-05-09 22:45:15.197Z106.195° ESE2025-05-09 22:48:15.197Z41.067° NE33.888°2025-05-09 22:53:15.197Z332.455° NNW
8 mins2025-05-09 23:06:15.197Z341.347° N2025-05-09 23:11:15.197Z64.634° ENE35.42°2025-05-09 23:14:15.197Z128.183° SE
7 mins2025-05-10 02:38:15.197Z177.131° S2025-05-10 02:40:15.197Z117.427° SE44.801°2025-05-10 02:45:15.197Z6.24° NNE
7 mins2025-05-10 03:02:15.197Z8.836° NNE2025-05-10 03:06:15.197Z175.479° S44.861°2025-05-10 03:09:15.197Z188.62° SSW
16 mins2025-05-10 06:39:15.197Z252.031° W2025-05-10 06:46:15.197Z295.451° NW38.267°2025-05-10 06:55:15.197Z244.137° WSW
|